Enid Vance AFB, OK

9:55 AM CST on December 13, 2017 (GMT -0600)
Vance Air Force Base

Weather History for KEND - February, 2013

Change the Weather History Date:

Friday, February 22, 2013

  Actual Average Record
Temperature  
Mean Temperature 20 °F -  
Max Temperature 26 °F 50 °F 74 °F (2017)
Min Temperature 14 °F 30 °F 14 °F (2013)
Degree Days  
Heating Degree Days 45    
Moisture  
Dew Point 17 °F    
Average Humidity 86    
Maximum Humidity 97    
Minimum Humidity 69    
Precipitation  
Precipitation 0.00 in - - ()
Snow  
Snow 0.00 in - - ()
Snow Depth 3.00 in    
Sea Level Pressure  
Sea Level Pressure 30.13 in    
Wind  
Wind Speed 12 mph (WNW)    
Max Wind Speed 17 mph    
Max Gust Speed -    
Visibility 10 miles    
Events      
Averages and records for this station are not official NWS values.
T = Trace of Precipitation, MM = Missing Value Source: NWS Daily Summary

Daily Weather History Graph

Daily Weather History Graph

Search for Another Location

Airport or City:

Trip Planner

Search our weather history database for the weather conditions in past years. The results will help you decide how hot, cold, wet, or windy it might be!

Date:

Astronomy

Feb. 22, 2013 Rise Set
Actual Time 7:10 AM CST 6:19 PM CST
Civil Twilight 6:44 AM CST 6:46 PM CST
Nautical Twilight 6:14 AM CST 7:15 PM CST
Astronomical Twilight 5:45 AM CST 7:45 PM CST
Moon 3:35 PM CST (2/22) 4:53 AM CST (2/22)
Length of Visible Light 12h 01m
Length of Day
11h 09m
Waxing Gibbous, 90% of the Moon is Illuminated
Feb 22
Waxing Gibbous
Feb 25
Full
Mar 4
Last Quarter
Mar 11
New
Mar 19
First Quarter

Hourly Weather History & Observations

Time (CST) Temp. Windchill Dew Point Humidity Pressure Visibility Wind Dir Wind Speed Gust Speed Precip Events Conditions
12:55 AM 18.7 °F 3.6 °F 16.5 °F 91% 30.03 in 10.0 mi WNW 17.3 mph - N/A   Clear
1:55 AM 18.0 °F 4.2 °F 15.6 °F 91% 30.04 in 10.0 mi WNW 13.8 mph - N/A   Clear
2:55 AM 17.4 °F 3.5 °F 15.1 °F 91% 30.03 in 10.0 mi NW 13.8 mph - N/A   Clear
3:55 AM 17.6 °F 2.7 °F 14.0 °F 86% 30.02 in 10.0 mi NW 16.1 mph - N/A   Clear
4:55 AM 15.8 °F 0.3 °F 14.0 °F 93% 30.06 in 10.0 mi WNW 16.1 mph - N/A   Clear
5:55 AM 15.8 °F 2.1 °F 12.2 °F 86% 30.07 in 10.0 mi NW 12.7 mph - N/A   Clear
6:55 AM 14.0 °F -0.8 °F 12.2 °F 93% 30.09 in 10.0 mi WNW 13.8 mph - N/A   Clear
7:55 AM 15.8 °F 3.4 °F 12.2 °F 86% 30.14 in 10.0 mi WNW 10.4 mph - N/A   Partly Cloudy
8:55 AM 17.6 °F 5.0 °F 14.0 °F 86% 30.17 in 10.0 mi West 11.5 mph - N/A   Partly Cloudy
9:55 AM 19.4 °F 7.9 °F 14.0 °F 80% 30.19 in 10.0 mi WNW 10.4 mph - N/A   Partly Cloudy
10:55 AM 21.2 °F 11.7 °F 15.8 °F 80% 30.19 in 10.0 mi WNW 8.1 mph - N/A   Partly Cloudy
11:55 AM 24.8 °F 16.1 °F 17.6 °F 74% 30.19 in 10.0 mi WNW 8.1 mph - N/A   Partly Cloudy
12:55 PM 24.8 °F 15.3 °F 17.6 °F 74% 30.18 in 10.0 mi WNW 9.2 mph - N/A   Partly Cloudy
1:55 PM 26.6 °F 17.5 °F 19.4 °F 74% 30.15 in 10.0 mi WNW 9.2 mph - N/A   Partly Cloudy
2:55 PM 26.6 °F 16.2 °F 17.6 °F 69% 30.16 in 10.0 mi WNW 11.5 mph - N/A   Scattered Clouds
3:55 PM 26.6 °F 16.8 °F 19.4 °F 74% 30.13 in 10.0 mi NW 10.4 mph - N/A   Scattered Clouds
4:55 PM 26.6 °F 17.5 °F 19.4 °F 74% 30.07 in 10.0 mi NW 9.2 mph - N/A   Mostly Cloudy
5:55 PM 24.8 °F 15.3 °F 19.4 °F 80% 30.13 in 10.0 mi NNW 9.2 mph - N/A   Mostly Cloudy
6:55 PM 23.0 °F 15.8 °F 21.2 °F 93% 30.15 in 10.0 mi West 5.8 mph - N/A   Mostly Cloudy
7:55 PM 21.6 °F 15.3 °F 19.6 °F 92% 30.17 in 10.0 mi WSW 4.6 mph - N/A   Clear
8:55 PM 19.8 °F 11.9 °F 18.7 °F 96% 30.17 in 10.0 mi West 5.8 mph - N/A   Clear
9:55 PM 20.7 °F 13.0 °F 19.9 °F 97% 30.18 in 10.0 mi West 5.8 mph - N/A   Clear
10:55 PM 19.8 °F 11.9 °F 18.9 °F 96% 30.17 in 10.0 mi West 5.8 mph - N/A   Clear
11:55 PM 19.2 °F - 18.1 °F 96% 30.16 in 10.0 mi Calm Calm - N/A   Clear